Location: ???????
(60.4260°N, 46.9069°E)
Time: 21:27:50
(UTC+00:00)

Cosmos 44 Rocket - Pass Details

Date: 30 March 2020
Orbit: 656 x 734 km, 65.1° (Epoch: 24 May)

Event Time Altitude Azimuth Distance (km) Brightness Sun altitude
Exits shadow 00:42:37 16° 217° (SW) 1,699 4.7 -12.3°
Maximum altitude 00:46:16 64° 140° (SE) 734 3.5 -11.9°
Drops below altitude 10° 00:50:57 10° 59° (ENE) 2,090 7.4 -11.4°
Sets 00:53:17 0° 56° (ENE) 3,012 8.8 -11.2°
